Date String (YYYY-MM-DD hh:mm:ss) UTC,Instrument flags,absolute air pressure of the measurement (hPa),sample flow rate (lpm),inlet stack bypass flow (lpm),air temperature of the measurement (°C),ambient temperature measured by the external sensor (°C),aerosol sample conditioner tube jacket temperature (°C),OPC LED temperature (°C),internal box temperature (°C),relative humidity of the measurement (%),span deviation,mass concentration of particles derived from Lorenz-Mie calculation of OPC scattering (μg/m³),mass concentration of particles derived from Lorenz-Mie calculation of OPC scattering (μg/m³),mass concentration of particles derived from Lorenz-Mie calculation of OPC scattering (μg/m³)
DateTimeUTC,F1_M11,P_M11,Q1_M11,Q2_M11,T1_M11,T2_M11,T3_M11,T4_M11,T5_M11,U1_M11,ZSPAN_M11,X2_M11,X0_M11,X1_M11
2024-05-29 20:00:00,SystemResetWarning,0828.3,5.00,000.00,029.8,029.4,000.0,037.8,031.6,020.9,0000.0,0005.75,0020.03,0004.23
2024-05-29 20:01:00,SystemResetWarning,0828.3,5.00,000.00,029.9,029.5,000.0,037.9,031.7,022.2,0000.0,0005.74,0019.64,0004.22
2024-05-29 20:02:00,SystemResetWarning,0828.3,4.98,000.00,029.9,029.5,000.0,037.9,031.7,020.9,0000.0,0005.72,0019.19,0004.21
2024-05-29 20:03:00,SystemResetWarning,0828.3,5.00,000.00,029.9,028.5,000.0,038.0,031.2,020.9,0000.0,0005.71,0018.83,0004.18
2024-05-29 20:04:00,SystemResetWarning,0828.2,5.00,000.00,029.5,026.1,000.0,038.0,030.1,020.8,0000.0,0005.73,0019.20,0004.18
2024-05-29 20:05:00,SystemResetWarning,0828.2,5.01,000.00,029.1,025.6,000.0,038.0,029.7,021.2,0000.0,0005.74,0018.65,0004.17
2024-05-29 20:06:00,SystemResetWarning,0828.2,5.02,000.00,029.0,026.1,000.0,037.9,029.9,021.4,0000.0,0005.76,0018.91,0004.15
2024-05-29 20:07:00,SystemResetWarning,0828.2,4.99,000.00,029.0,026.5,000.0,037.7,030.2,021.8,0000.0,0005.74,0020.00,0004.14
2024-05-29 20:08:00,SystemResetWarning,0828.3,5.00,000.00,029.0,027.0,000.0,037.6,030.4,021.8,0000.0,0005.74,0020.36,0004.14
2024-05-29 20:09:00,SystemResetWarning,0828.2,5.01,000.00,029.1,027.4,000.0,037.6,030.6,023.0,0000.0,0005.78,0020.65,0004.16
2024-05-29 20:10:00,SystemResetWarning,0828.2,5.00,000.00,029.1,027.8,000.0,037.6,030.7,022.2,0000.0,0005.81,0020.82,0004.17
2024-05-29 20:11:00,SystemResetWarning,0828.2,5.00,000.00,029.2,028.1,000.0,037.6,030.9,021.1,0000.0,0005.84,0020.99,0004.17
2024-05-29 20:12:00,SystemResetWarning,0828.2,4.99,000.00,029.2,028.3,000.0,037.6,031.0,022.2,0000.0,0005.83,0021.16,0004.16
2024-05-29 20:13:00,SystemResetWarning,0828.2,5.00,000.00,029.3,028.5,000.0,037.6,031.1,022.2,0000.0,0005.81,0020.90,0004.16
2024-05-29 20:14:00,SystemResetWarning,0828.2,5.01,000.00,029.4,028.7,000.0,037.6,031.2,022.6,0000.0,0005.81,0021.74,0004.16
2024-05-29 20:15:00,SystemResetWarning,0828.2,5.00,000.00,029.5,028.9,000.0,037.6,031.3,021.5,0000.0,0005.85,0021.32,0004.16
2024-05-29 20:16:00,SystemResetWarning,0828.1,5.01,000.00,029.5,029.0,000.0,037.6,031.3,021.8,0000.0,0005.87,0021.62,0004.16
2024-05-29 20:17:00,SystemResetWarning,0828.0,5.00,000.00,029.6,029.1,000.0,037.7,031.4,020.5,0000.0,0005.87,0020.75,0004.16
2024-05-29 20:18:00,SystemResetWarning,0828.0,4.99,000.00,029.7,029.3,000.0,037.7,031.5,021.5,0000.0,0005.81,0020.31,0004.12
2024-05-29 20:19:00,SystemResetWarning,0828.1,4.99,000.00,029.7,029.3,000.0,037.8,031.5,019.9,0000.0,0005.76,0019.77,0004.08
2024-05-29 20:20:00,SystemResetWarning,0828.1,5.00,000.00,029.8,029.4,000.0,037.8,031.6,019.3,0000.0,0005.71,0018.64,0004.03
2024-05-29 20:21:00,SystemResetWarning,0828.1,5.01,000.00,029.9,029.4,000.0,037.9,031.6,020.6,0000.0,0005.60,0018.06,0003.99
2024-05-29 20:22:00,SystemResetWarning,0828.0,4.98,000.00,029.7,027.7,000.0,037.9,030.7,019.5,0000.0,0005.51,0017.38,0003.96
2024-05-29 20:23:00,SystemResetWarning,0827.9,5.02,000.00,029.2,025.7,000.0,038.0,029.7,020.1,0000.0,0005.43,0016.28,0003.93
2024-05-29 20:24:00,SystemResetWarning,0827.8,5.00,000.00,029.0,025.8,000.0,037.9,029.7,019.9,0000.0,0005.37,0016.03,0003.89
2024-05-29 20:25:00,SystemResetWarning,0827.9,4.99,000.00,028.9,026.3,000.0,037.8,030.0,020.5,0000.0,0005.26,0014.70,0003.85
2024-05-29 20:26:00,SystemResetWarning,0828.0,5.00,000.00,029.0,026.8,000.0,037.7,030.2,020.9,0000.0,0005.15,0014.57,0003.82
2024-05-29 20:27:00,SystemResetWarning,0828.0,5.01,000.00,029.0,027.2,000.0,037.6,030.4,020.9,0000.0,0005.10,0014.54,0003.80
2024-05-29 20:28:00,SystemResetWarning,0828.1,5.01,000.00,029.0,027.6,000.0,037.6,030.6,020.7,0000.0,0005.07,0014.65,0003.77
2024-05-29 20:29:00,SystemResetWarning,0828.1,5.00,000.00,029.1,028.0,000.0,037.5,030.8,020.4,0000.0,0005.04,0014.04,0003.76
2024-05-29 20:30:00,SystemResetWarning,0828.1,5.00,000.00,029.2,028.2,000.0,037.5,030.9,019.4,0000.0,0005.03,0014.03,0003.75
2024-05-29 20:31:00,SystemResetWarning,0828.0,5.00,000.00,029.3,028.5,000.0,037.5,031.0,018.5,0000.0,0005.00,0014.14,0003.73
2024-05-29 20:32:00,SystemResetWarning,0828.0,5.00,000.00,029.3,028.7,000.0,037.6,031.1,019.5,0000.0,0004.99,0014.32,0003.73
2024-05-29 20:33:00,SystemResetWarning,0828.0,4.99,000.00,029.4,028.8,000.0,037.6,031.2,019.4,0000.0,0004.98,0015.11,0003.72
2024-05-29 20:34:00,SystemResetWarning,0828.1,5.00,000.00,029.5,029.0,000.0,037.6,031.3,019.9,0000.0,0004.99,0016.37,0003.71
2024-05-29 20:35:00,SystemResetWarning,0828.2,5.00,000.00,029.5,029.1,000.0,037.6,031.4,019.9,0000.0,0004.99,0016.61,0003.71
2024-05-29 20:36:00,SystemResetWarning,0828.2,5.00,000.00,029.6,029.2,000.0,037.7,031.4,019.3,0000.0,0004.99,0016.52,0003.72
2024-05-29 20:37:00,SystemResetWarning,0828.2,5.00,000.00,029.7,029.3,000.0,037.7,031.5,018.6,0000.0,0004.97,0017.26,0003.70
2024-05-29 20:38:00,SystemResetWarning,0828.3,5.00,000.00,029.8,029.4,000.0,037.8,031.6,018.8,0000.0,0004.93,0016.76,0003.68
2024-05-29 20:39:00,SystemResetWarning,0828.3,5.00,000.00,029.8,029.5,000.0,037.8,031.6,019.1,0000.0,0004.88,0016.43,0003.66
2024-05-29 20:40:00,SystemResetWarning,0828.3,4.99,000.00,029.7,027.9,000.0,037.9,030.8,019.0,0000.0,0004.83,0016.46,0003.64
2024-05-29 20:41:00,SystemResetWarning,0828.3,5.02,000.00,029.4,026.6,000.0,037.9,030.2,020.1,0000.0,0004.86,0016.57,0003.65
2024-05-29 20:42:00,SystemResetWarning,0828.4,5.00,000.00,029.2,026.9,000.0,037.9,030.3,020.1,0000.0,0004.97,0017.89,0003.65
2024-05-29 20:43:00,SystemResetWarning,0828.4,5.01,000.00,029.2,027.3,000.0,037.8,030.5,019.6,0000.0,0004.96,0018.02,0003.65
2024-05-29 20:44:00,SystemResetWarning,0828.4,5.00,000.00,029.3,027.6,000.0,037.7,030.7,019.8,0000.0,0004.98,0017.56,0003.66
2024-05-29 20:45:00,SystemResetWarning,0828.4,5.00,000.00,029.3,028.0,000.0,037.7,030.9,018.7,0000.0,0004.94,0016.25,0003.64
2024-05-29 20:46:00,SystemResetWarning,0828.4,5.00,000.00,029.4,028.3,000.0,037.7,031.1,018.8,0000.0,0004.96,0015.85,0003.62
2024-05-29 20:47:00,SystemResetWarning,0828.5,5.00,000.00,029.4,028.5,000.0,037.7,031.2,018.7,0000.0,0004.92,0016.76,0003.58
2024-05-29 20:48:00,SystemResetWarning,0828.5,5.00,000.00,029.5,028.7,000.0,037.7,031.3,018.1,0000.0,0004.96,0016.17,0003.57
2024-05-29 20:49:00,SystemResetWarning,0828.5,5.00,000.00,029.6,028.9,000.0,037.8,031.4,017.6,0000.0,0004.95,0015.90,0003.55
2024-05-29 20:50:00,SystemResetWarning,0828.5,5.00,000.00,029.6,029.1,000.0,037.8,031.4,017.2,0000.0,0004.92,0015.93,0003.52
2024-05-29 20:51:00,SystemResetWarning,0828.5,5.01,000.00,029.7,029.2,000.0,037.8,031.5,017.6,0000.0,0004.88,0015.85,0003.48
2024-05-29 20:52:00,SystemResetWarning,0828.5,5.00,000.00,029.8,029.3,000.0,037.8,031.6,017.3,0000.0,0004.79,0015.72,0003.43
2024-05-29 20:53:00,SystemResetWarning,0828.5,5.00,000.00,029.8,029.4,000.0,037.9,031.7,016.5,0000.0,0004.64,0015.02,0003.39
2024-05-29 20:54:00,SystemResetWarning,0828.5,4.99,000.00,029.8,028.8,000.0,037.9,031.3,016.4,0000.0,0004.57,0014.09,0003.34
2024-05-29 20:55:00,SystemResetWarning,0828.4,5.00,000.00,029.5,026.8,000.0,038.0,030.4,016.9,0000.0,0004.47,0013.13,0003.28
2024-05-29 20:56:00,SystemResetWarning,0828.4,5.01,000.00,029.3,026.7,000.0,038.0,030.3,017.6,0000.0,0004.39,0012.74,0003.23
2024-05-29 20:57:00,SystemResetWarning,0828.4,4.99,000.00,029.2,027.0,000.0,037.9,030.4,017.2,0000.0,0004.27,0012.79,0003.20
2024-05-29 20:58:00,SystemResetWarning,0828.4,5.00,000.00,029.3,027.4,000.0,037.8,030.7,017.1,0000.0,0004.18,0013.41,0003.19
2024-05-29 20:59:00,SystemResetWarning,0828.3,5.00,000.00,029.3,027.7,000.0,037.7,030.9,016.4,0000.0,0004.06,0014.02,0003.16
